Location: Ridgway Nature & Science Center
(38.1460°N, 107.7553°W)
Time: 11:31:06
(UTC-06:00)

Hubble Space Telescope - Pass Details

Date: 09 August 2022
Orbit: 531 x 535 km, 28.5° (Epoch: 27 September)

Event Time Altitude Azimuth Distance (km) Brightness Sun altitude
Rises 21:14:07 0° 245° (WSW) 2,662 4.8 -11.9°
Reaches altitude 10° 21:16:46 10° 229° (SW) 1,772 3.6 -12.3°
Maximum altitude 21:19:53 21° 179° (S) 1,225 2.3 -12.9°
Enters shadow 21:21:18 18° 151° (SSE) 1,358 2.3 -13.1°
